CW3518 Weather Reports


Display with metric or nautical units.
time (UTC)temp
F
wind
direction
speed
MPH
gust
MPH
rain 1hr
in
rain 24hr
in
rain mn
in
humidity
%
barometer
mb
20211024092508 68 189 8.0 16.0 0.00 0.00 0.00 79 1009.1
20211024092008 68 180 10.0 18.0 0.00 0.00 0.00 79 1009.1
20211024091508 68 194 9.0 18.0 0.00 0.00 0.00 78 1009.2
20211024091008 69 196 10.0 17.0 0.00 0.00 0.00 78 1009.2
20211024090508 69 203 12.0 16.0 0.00 0.00 0.00 78 1009.1
20211024090008 69 184 14.0 18.0 0.00 0.00 0.00 77 1009.1
20211024085508 69 175 10.0 18.0 0.00 0.00 0.00 77 1009.1
20211024085007 69 185 15.0 17.0 0.00 0.00 0.00 77 1009.1
20211024084508 69 192 12.0 18.0 0.00 0.00 0.00 76 1009.3
20211024084007 69 201 15.0 18.0 0.00 0.00 0.00 76 1009.3
20211024083507 69 193 17.0 18.0 0.00 0.00 0.00 76 1009.3
20211024083008 69 196 15.0 22.0 0.00 0.00 0.00 75 1009.3
20211024082508 70 198 13.0 25.0 0.00 0.00 0.00 75 1009.3
20211024082008 70 179 18.0 25.0 0.00 0.00 0.00 74 1009.3
20211024081508 70 198 18.0 22.0 0.00 0.00 0.00 74 1009.5
20211024081008 70 192 17.0 22.0 0.00 0.00 0.00 74 1009.5
20211024080508 70 195 15.0 20.0 0.00 0.00 0.00 73 1009.5
20211024080008 70 180 14.0 20.0 0.00 0.00 0.00 73 1009.4
20211024075508 70 177 15.0 20.0 0.00 0.00 0.00 73 1009.6
20211024075008 70 186 11.0 21.0 0.00 0.00 0.00 72 1009.6
20211024074508 71 197 15.0 21.0 0.00 0.00 0.00 72 1009.6
20211024074008 71 182 17.0 21.0 0.00 0.00 0.00 72 1009.6
20211024073508 71 202 18.0 21.0 0.00 0.00 0.00 71 1009.5
20211024073008 71 198 20.0 21.0 0.00 0.00 0.00 71 1009.5
20211024072508 71 187 17.0 22.0 0.00 0.00 0.00 71 1009.4
20211024072009 71 185 22.0 22.0 0.00 0.00 0.00 70 1009.3
20211024071508 71 183 18.0 19.0 0.00 0.00 0.00 70 1009.4
20211024071008 71 194 15.0 18.0 0.00 0.00 0.00 70 1009.4
20211024070508 71 185 12.0 19.0 0.00 0.00 0.00 69 1009.4
20211024070007 72 188 11.0 24.0 0.00 0.00 0.00 68 1009.5
20211024065508 72 191 13.0 24.0 0.00 0.00 0.00 67 1009.5
20211024065008 72 194 15.0 26.0 0.00 0.00 0.00 67 1009.6
20211024064508 72 172 20.0 26.0 0.00 0.00 0.00 67 1009.5
20211024064008 72 192 20.0 22.0 0.00 0.00 0.00 67 1009.4
20211024063508 73 198 18.0 24.0 0.00 0.00 0.00 67 1009.3
20211024063008 73 179 15.0 24.0 0.00 0.00 0.00 67 1009.3
20211024062508 73 175 13.0 23.0 0.00 0.00 0.00 67 1009.3
20211024062008 73 189 15.0 23.0 0.00 0.00 0.00 67 1009.1
20211024061508 73 169 18.0 23.0 0.00 0.00 0.00 67 1009.1
20211024061008 73 168 20.0 23.0 0.00 0.00 0.00 67 1009.1
20211024060508 73 171 16.0 24.0 0.00 0.00 0.00 66 1009.2
20211024060008 73 173 16.0 25.0 0.00 0.00 0.00 66 1009.1
20211024055508 74 177 23.0 26.0 0.00 0.00 0.00 65 1009.0
20211024055008 74 172 22.0 26.0 0.00 0.00 0.00 66 1009.1
20211024054508 74 178 19.0 23.0 0.00 0.00 0.00 67 1009.1
20211024054009 74 173 20.0 24.0 0.00 0.00 0.00 69 1009.1
20211024053508 74 190 18.0 24.0 0.00 0.00 0.00 71 1009.1
20211024053008 74 167 20.0 24.0 0.00 0.00 0.00 71 1009.1
20211024052508 74 175 19.0 24.0 0.00 0.00 0.00 72 1009.2
20211024052008 74 171 13.0 24.0 0.00 0.00 0.00 72 1009.2
20211024051508 74 170 19.0 24.0 0.00 0.00 0.00 72 1009.1
20211024051008 75 172 20.0 24.0 0.00 0.00 0.00 71 1008.9
20211024050508 75 172 17.0 24.0 0.00 0.00 0.00 71 1009.0
20211024050008 75 167 17.0 26.0 0.00 0.00 0.00 71 1009.1
20211024045508 75 168 19.0 26.0 0.00 0.00 0.00 70 1009.1
20211024045038 75 181 20.0 25.0 0.00 0.00 0.00 70 1008.9
20211024044508 75 178 14.0 25.0 0.00 0.00 0.00 71 1009.1
20211024044008 75 184 18.0 23.0 0.00 0.00 0.00 71 1009.0
20211024043508 75 183 14.0 25.0 0.00 0.00 0.00 71 1009.0
20211024043008 75 171 22.0 25.0 0.00 0.00 0.00 71 1008.9
20211024042508 76 167 22.0 25.0 0.00 0.00 0.00 70 1009.0
20211024042008 76 188 17.0 25.0 0.00 0.00 0.00 70 1009.0
20211024041508 76 170 15.0 23.0 0.00 0.00 0.00 70 1009.0
20211024041008 76 171 16.0 22.0 0.00 0.00 0.00 70 1009.0
20211024040508 76 175 20.0 22.0 0.00 0.00 0.00 70 1009.0
20211024040008 76 174 17.0 23.0 0.00 0.00 0.00 69 1009.1
20211024035508 76 174 18.0 23.0 0.00 0.00 0.00 69 1009.0
20211024035008 76 171 16.0 23.0 0.00 0.00 0.00 69 1009.0
20211024034508 76 174 13.0 23.0 0.00 0.00 0.00 69 1008.9
20211024034008 76 173 15.0 21.0 0.00 0.00 0.00 69 1008.8
20211024033508 76 172 14.0 21.0 0.00 0.00 0.00 69 1008.7
20211024033009 76 172 15.0 20.0 0.00 0.00 0.00 69 1008.7
20211024032508 76 173 16.0 19.0 0.00 0.00 0.00 69 1008.7
20211024032008 76 166 14.0 17.0 0.00 0.00 0.00 69 1008.7
20211024031508 76 164 11.0 15.0 0.00 0.00 0.00 68 1008.6
20211024031008 76 172 10.0 18.0 0.00 0.00 0.00 68 1008.6
20211024030508 76 172 13.0 18.0 0.00 0.00 0.00 67 1008.6
20211024030009 76 160 17.0 18.0 0.00 0.00 0.00 67 1008.4
20211024025508 76 159 15.0 18.0 0.00 0.00 0.00 67 1008.3
20211024025008 76 164 14.0 16.0 0.00 0.00 0.00 66 1008.3
20211024024508 76 153 11.0 14.0 0.00 0.00 0.00 65 1008.4
20211024024008 76 173 11.0 14.0 0.00 0.00 0.00 65 1008.4
20211024023511 76 169 11.0 13.0 0.00 0.00 0.00 64 1008.4
20211024023008 76 163 9.0 13.0 0.00 0.00 0.00 63 1008.4
20211024022508 76 165 11.0 14.0 0.00 0.00 0.00 63 1008.4
20211024022008 77 165 10.0 15.0 0.00 0.00 0.00 62 1008.4
20211024021508 77 173 14.0 15.0 0.00 0.00 0.00 61 1008.5
20211024021008 77 179 13.0 14.0 0.00 0.00 0.00 61 1008.4
20211024020508 77 167 13.0 15.0 0.00 0.00 0.00 61 1008.4
20211024020008 77 167 14.0 15.0 0.00 0.00 0.00 60 1008.5
20211024015508 77 167 11.0 13.0 0.00 0.00 0.00 60 1008.4
20211024015008 77 165 11.0 14.0 0.00 0.00 0.00 60 1008.5
20211024014508 77 169 13.0 16.0 0.00 0.00 0.00 59 1008.5
20211024014009 78 162 10.0 16.0 0.00 0.00 0.00 59 1008.4
20211024013508 78 168 12.0 15.0 0.00 0.00 0.00 59 1008.4
20211024013008 78 169 13.0 17.0 0.00 0.00 0.00 58 1008.4
20211024012508 78 167 13.0 17.0 0.00 0.00 0.00 58 1008.3
20211024012008 78 177 12.0 16.0 0.00 0.00 0.00 58 1008.4
20211024011508 78 178 13.0 16.0 0.00 0.00 0.00 58 1008.4
20211024011009 78 168 14.0 15.0 0.00 0.00 0.00 57 1008.3
20211024010509 78 170 14.0 16.0 0.00 0.00 0.00 57 1008.3
20211024010008 78 167 12.0 16.0 0.00 0.00 0.00 57 1008.3
20211024005508 79 169 15.0 16.0 0.00 0.00 0.00 56 1008.3
20211024005008 79 164 12.0 16.0 0.00 0.00 0.00 56 1008.3
20211024004508 79 159 11.0 16.0 0.00 0.00 0.00 56 1008.3
20211024004008 79 174 13.0 19.0 0.00 0.00 0.00 55 1008.2
20211024003508 80 166 13.0 19.0 0.00 0.00 0.00 55 1008.2
20211024003008 80 186 11.0 18.0 0.00 0.00 0.00 55 1008.2
20211024002508 80 173 15.0 18.0 0.00 0.00 0.00 55 1008.2
20211024002008 80 165 13.0 18.0 0.00 0.00 0.00 55 1008.2
20211024001508 80 175 13.0 18.0 0.00 0.00 0.00 55 1008.1
20211024001008 80 176 11.0 16.0 0.00 0.00 0.00 55 1008.1
20211024000508 80 173 14.0 16.0 0.00 0.00 0.00 55 1008.1
20211024000008 80 189 11.0 16.0 0.00 0.00 0.00 55 1008.2
20211023235508 80 180 16.0 17.0 0.00 0.00 0.00 55 1008.1
20211023235008 80 173 13.0 17.0 0.00 0.00 0.00 55 1008.1
20211023234508 81 162 12.0 17.0 0.00 0.00 0.00 54 1008.1
20211023234008 81 173 13.0 20.0 0.00 0.00 0.00 54 1008.1
20211023233508 81 170 13.0 20.0 0.00 0.00 0.00 53 1008.1
20211023233008 82 176 15.0 20.0 0.00 0.00 0.00 52 1008.1
20211023232508 82 175 19.0 21.0 0.00 0.00 0.00 52 1008.0
20211023232008 82 168 17.0 21.0 0.00 0.00 0.00 52 1008.0
20211023231508 82 176 16.0 21.0 0.00 0.00 0.00 53 1008.1
20211023231008 82 171 15.0 20.0 0.00 0.00 0.00 52 1008.1
20211023230508 82 190 16.0 20.0 0.00 0.00 0.00 52 1008.1
20211023230009 82 191 11.0 22.0 0.00 0.00 0.00 52 1008.1
20211023225508 83 175 16.0 24.0 0.00 0.00 0.00 51 1008.0
20211023225008 83 179 17.0 24.0 0.00 0.00 0.00 52 1007.9
20211023224508 83 191 15.0 26.0 0.00 0.00 0.00 51 1008.0
20211023224008 83 183 18.0 26.0 0.00 0.00 0.00 51 1008.0
20211023223508 83 179 17.0 26.0 0.00 0.00 0.00 51 1008.0
20211023223008 83 170 21.0 26.0 0.00 0.00 0.00 52 1007.9
20211023222508 83 155 14.0 22.0 0.00 0.00 0.00 51 1008.1
20211023222008 83 168 20.0 22.0 0.00 0.00 0.00 50 1008.1
20211023221508 83 196 12.0 23.0 0.00 0.00 0.00 51 1008.1
20211023221008 83 198 18.0 23.0 0.00 0.00 0.00 51 1008.2
20211023220508 83 196 12.0 23.0 0.00 0.00 0.00 51 1008.3
20211023220008 83 164 21.0 23.0 0.00 0.00 0.00 51 1008.2
20211023215539 83 176 20.0 23.0 0.00 0.00 0.00 51 1008.2
20211023215008 84 165 16.0 21.0 0.00 0.00 0.00 50 1008.2
20211023214509 83 192 14.0 26.0 0.00 0.00 0.00 50 1008.3
20211023214008 83 177 19.0 26.0 0.00 0.00 0.00 50 1008.3
20211023213508 83 172 16.0 25.0 0.00 0.00 0.00 50 1008.4
20211023213038 84 170 19.0 25.0 0.00 0.00 0.00 49 1008.3
20211023212509 83 156 22.0 24.0 0.00 0.00 0.00 49 1008.2
20211023212008 84 177 15.0 24.0 0.00 0.00 0.00 50 1008.5
20211023211508 84 159 18.0 22.0 0.00 0.00 0.00 50 1008.5
20211023211008 84 168 13.0 24.0 0.00 0.00 0.00 49 1008.5
20211023210508 84 177 16.0 24.0 0.00 0.00 0.00 48 1008.5
20211023210008 84 181 14.0 24.0 0.00 0.00 0.00 49 1008.6
20211023205508 84 195 12.0 24.0 0.00 0.00 0.00 48 1008.6
20211023205008 84 192 20.0 24.0 0.00 0.00 0.00 48 1008.6
20211023204508 84 183 16.0 22.0 0.00 0.00 0.00 49 1008.8
20211023204008 84 183 17.0 22.0 0.00 0.00 0.00 48 1008.9
20211023203508 84 183 13.0 24.0 0.00 0.00 0.00 49 1008.9
20211023203008 83 158 16.0 24.0 0.00 0.00 0.00 50 1009.0
20211023202508 83 169 16.0 22.0 0.00 0.00 0.00 50 1009.1
20211023202008 84 165 19.0 22.0 0.00 0.00 0.00 50 1009.1
20211023201508 83 204 15.0 22.0 0.00 0.00 0.00 50 1009.2
20211023201008 84 198 13.0 25.0 0.00 0.00 0.00 50 1009.3
20211023200508 83 195 18.0 25.0 0.00 0.00 0.00 50 1009.3
20211023200009 84 194 19.0 25.0 0.00 0.00 0.00 49 1009.3
20211023195508 83 201 19.0 25.0 0.00 0.00 0.00 50 1009.4
20211023195008 83 205 22.0 24.0 0.00 0.00 0.00 51 1009.5
20211023194509 83 198 14.0 26.0 0.00 0.00 0.00 51 1009.7
20211023194008 82 202 21.0 28.0 0.00 0.00 0.00 51 1009.7
20211023193508 82 196 22.0 28.0 0.00 0.00 0.00 51 1009.7
20211023193008 83 190 14.0 20.0 0.00 0.00 0.00 50 1009.8
20211023192509 83 213 12.0 22.0 0.00 0.00 0.00 52 1010.1
20211023192008 82 202 13.0 27.0 0.00 0.00 0.00 52 1010.2
20211023191508 81 198 23.0 27.0 0.00 0.00 0.00 53 1010.1
20211023191009 82 183 17.0 26.0 0.00 0.00 0.00 53 1010.2
20211023190508 82 193 15.0 23.0 0.00 0.00 0.00 53 1010.5
20211023190008 81 159 18.0 24.0 0.00 0.00 0.00 54 1010.5
20211023185508 81 188 14.0 24.0 0.00 0.00 0.00 54 1010.6
20211023185009 81 168 20.0 25.0 0.00 0.00 0.00 55 1010.6
20211023184509 81 186 22.0 25.0 0.00 0.00 0.00 55 1010.7
20211023184008 81 163 19.0 26.0 0.00 0.00 0.00 55 1010.8
20211023183508 81 182 19.0 26.0 0.00 0.00 0.00 55 1010.9
20211023183009 81 174 15.0 24.0 0.00 0.00 0.00 56 1011.1
20211023182508 81 187 20.0 24.0 0.00 0.00 0.00 55 1011.2
20211023182008 80 176 18.0 23.0 0.00 0.00 0.00 55 1011.2
20211023181508 80 188 14.0 23.0 0.00 0.00 0.00 56 1011.4
20211023181009 80 153 14.0 23.0 0.00 0.00 0.00 57 1011.4
20211023180508 80 208 15.0 23.0 0.00 0.00 0.00 57 1011.7
20211023180008 80 189 13.0 22.0 0.00 0.00 0.00 57 1011.8
20211023175509 80 211 17.0 25.0 0.00 0.00 0.00 58 1011.8
20211023175009 80 193 18.0 25.0 0.00 0.00 0.00 56 1011.9
20211023174508 79 203 14.0 25.0 0.00 0.00 0.00 57 1012.0
20211023174008 79 183 16.0 24.0 0.00 0.00 0.00 57 1012.0
20211023173508 79 196 22.0 26.0 0.00 0.00 0.00 57 1012.0
20211023173009 79 212 23.0 26.0 0.00 0.00 0.00 57 1012.2
20211023172508 79 198 16.0 22.0 0.00 0.00 0.00 59 1012.3
20211023172009 79 221 16.0 21.0 0.00 0.00 0.00 58 1012.4
20211023171508 78 200 16.0 23.0 0.00 0.00 0.00 59 1012.4
20211023171008 78 184 16.0 23.0 0.00 0.00 0.00 61 1012.4
20211023170531 77 199 22.0 23.0 0.00 0.00 0.00 61 1012.5
20211023170009 77 208 17.0 22.0 0.00 0.00 0.00 61 1012.6
20211023165509 77 201 15.0 23.0 0.00 0.00 0.00 62 1012.7
20211023165009 77 199 22.0 23.0 0.00 0.00 0.00 62 1012.6
20211023164509 77 217 21.0 22.0 0.00 0.00 0.00 63 1012.8
20211023164008 77 215 20.0 25.0 0.00 0.00 0.00 63 1012.9
20211023163509 76 201 17.0 25.0 0.00 0.00 0.00 64 1012.9
20211023163008 75 199 16.0 21.0 0.00 0.00 0.00 65 1012.9
20211023162508 76 199 16.0 24.0 0.00 0.00 0.00 65 1013.0
20211023162009 75 201 18.0 24.0 0.00 0.00 0.00 67 1013.1
20211023161508 75 204 21.0 22.0 0.00 0.00 0.00 66 1013.1
20211023161008 74 211 19.0 22.0 0.00 0.00 0.00 69 1013.2
20211023160508 73 211 16.0 21.0 0.00 0.00 0.00 70 1013.3
20211023160009 73 209 18.0 21.0 0.00 0.00 0.00 71 1013.3
20211023155508 73 208 16.0 20.0 0.00 0.00 0.00 73 1013.3
20211023155008 72 205 12.0 20.0 0.00 0.00 0.00 74 1013.4
20211023154509 73 193 17.0 21.0 0.00 0.00 0.00 74 1013.4
20211023154008 71 212 19.0 21.0 0.00 0.00 0.00 76 1013.4
20211023153508 71 209 16.0 21.0 0.00 0.00 0.00 78 1013.4
20211023153008 70 196 15.0 19.0 0.00 0.00 0.00 79 1013.5
20211023152509 70 209 16.0 19.0 0.00 0.00 0.00 80 1013.5
20211023152009 69 210 18.0 19.0 0.00 0.00 0.00 80 1013.5
20211023151509 69 203 16.0 18.0 0.00 0.00 0.00 82 1013.5
20211023151009 69 217 16.0 17.0 0.00 0.00 0.00 82 1013.5
20211023150508 69 198 12.0 18.0 0.00 0.00 0.00 84 1013.6
20211023150008 68 199 15.0 18.0 0.00 0.00 0.00 84 1013.5
20211023145509 68 208 13.0 15.0 0.00 0.00 0.00 85 1013.5
20211023145009 68 198 10.0 16.0 0.00 0.00 0.00 86 1013.5
20211023144508 68 210 12.0 16.0 0.00 0.00 0.00 86 1013.5
20211023144008 67 199 16.0 16.0 0.00 0.00 0.00 86 1013.4
20211023143509 67 195 15.0 16.0 0.00 0.00 0.00 86 1013.4
20211023143008 67 183 14.0 22.0 0.00 0.00 0.00 86 1013.3
20211023142509 67 203 19.0 22.0 0.00 0.00 0.00 85 1013.4
20211023142008 67 189 12.0 13.0 0.00 0.00 0.00 85 1013.4
20211023141509 67 182 13.0 13.0 0.00 0.00 0.00 85 1013.4
20211023141009 66 180 11.0 13.0 0.00 0.00 0.00 84 1013.3
20211023140508 66 191 9.0 13.0 0.00 0.00 0.00 84 1013.3
20211023140009 66 191 10.0 13.0 0.00 0.00 0.00 84 1013.3
20211023135509 66 179 6.0 11.0 0.00 0.00 0.00 85 1013.2
20211023135008 66 179 6.0 11.0 0.00 0.00 0.00 85 1013.1
20211023134509 66 166 9.0 10.0 0.00 0.00 0.00 85 1013.1
20211023134009 66 174 8.0 8.0 0.00 0.00 0.00 85 1013.1
20211023133509 65 172 8.0 8.0 0.00 0.00 0.00 85 1013.0
20211023133009 65 169 7.0 9.0 0.00 0.00 0.00 86 1013.0
20211023132508 65 171 7.0 9.0 0.00 0.00 0.00 86 1012.9
20211023132008 65 157 7.0 8.0 0.00 0.00 0.00 86 1012.8
20211023131509 64 150 5.0 6.0 0.00 0.00 0.00 86 1012.8
20211023131009 64 179 4.0 6.0 0.00 0.00 0.00 85 1012.8
20211023130509 64 178 5.0 5.0 0.00 0.00 0.00 85 1012.8
20211023130008 64 190 2.0 7.0 0.00 0.00 0.00 85 1012.8
20211023125508 64 167 4.0 7.0 0.00 0.00 0.00 85 1012.7
20211023125009 64 178 3.0 8.0 0.00 0.00 0.00 85 1012.6
20211023124509 65 204 6.0 9.0 0.00 0.00 0.00 85 1012.6
20211023124009 65 191 7.0 9.0 0.00 0.00 0.00 84 1012.5
20211023123509 65 186 7.0 9.0 0.00 0.00 0.00 84 1012.5
20211023123008 65 182 6.0 9.0 0.00 0.00 0.00 84 1012.5
20211023122509 65 184 6.0 11.0 0.00 0.00 0.00 84 1012.5
20211023122009 65 198 9.0 11.0 0.00 0.00 0.00 84 1012.4
20211023121509 65 190 9.0 11.0 0.00 0.00 0.00 84 1012.4
20211023121009 65 184 7.0 11.0 0.00 0.00 0.00 84 1012.4
20211023120509 65 192 9.0 10.0 0.00 0.00 0.00 84 1012.4
20211023120008 65 192 8.0 11.0 0.00 0.00 0.00 84 1012.4
20211023115509 65 186 7.0 11.0 0.00 0.00 0.00 84 1012.4
20211023115009 65 170 9.0 10.0 0.00 0.00 0.00 83 1012.4
20211023114509 65 192 7.0 10.0 0.00 0.00 0.00 83 1012.4
20211023114008 65 180 8.0 10.0 0.00 0.00 0.00 83 1012.4
20211023113509 65 182 8.0 11.0 0.00 0.00 0.00 82 1012.3
20211023113009 66 185 7.0 11.0 0.00 0.00 0.00 82 1012.3
20211023112509 66 186 7.0 11.0 0.00 0.00 0.00 82 1012.3
20211023112009 66 199 10.0 11.0 0.00 0.00 0.00 82 1012.3
20211023111509 66 191 9.0 11.0 0.00 0.00 0.00 82 1012.3
20211023111009 65 190 11.0 11.0 0.00 0.00 0.00 83 1012.2
20211023110508 65 183 8.0 11.0 0.00 0.00 0.00 82 1012.3
20211023110009 65 175 5.0 11.0 0.00 0.00 0.00 82 1012.3
20211023105509 65 188 8.0 9.0 0.00 0.00 0.00 83 1012.2
20211023105009 65 182 8.0 10.0 0.00 0.00 0.00 82 1012.2
20211023104509 65 193 6.0 10.0 0.00 0.00 0.00 82 1012.2
20211023104008 65 187 8.0 9.0 0.00 0.00 0.00 83 1012.2
20211023103508 65 185 6.0 9.0 0.00 0.00 0.00 83 1012.3
20211023103008 65 194 6.0 8.0 0.00 0.00 0.00 82 1012.2
20211023102509 65 185 8.0 9.0 0.00 0.00 0.00 82 1012.2
20211023102009 66 192 6.0 10.0 0.00 0.00 0.00 82 1012.2
20211023101509 66 194 6.0 10.0 0.00 0.00 0.00 82 1012.2
20211023101008 66 188 7.0 9.0 0.00 0.00 0.00 82 1012.3
20211023100509 66 186 7.0 10.0 0.00 0.00 0.00 81 1012.3
20211023100008 66 181 7.0 10.0 0.00 0.00 0.00 81 1012.3
20211023095509 66 187 8.0 10.0 0.00 0.00 0.00 81 1012.3
20211023095009 66 183 8.0 10.0 0.00 0.00 0.00 81 1012.3
20211023094509 66 194 7.0 9.0 0.00 0.00 0.00 81 1012.3
20211023094009 66 198 8.0 9.0 0.00 0.00 0.00 81 1012.4
20211023093509 66 201 6.0 9.0 0.00 0.00 0.00 81 1012.4
20211023093009 66 204 7.0 9.0 0.00 0.00 0.00 81 1012.4